Location: Champs
(48.8539°N, 2.6040°E)
Time: 08:53:59
(UTC+00:00)

USA 308 - Pass Details

Date: 30 May 2022
Orbit: 549 x 558 km, 54.0° (Epoch: 14 June)

Event Time Altitude Azimuth Distance (km) Brightness Sun altitude
Rises 01:59:51 0° 276° (W) 2,737 6.1 -13.4°
Reaches altitude 10° 02:02:11 10° 283° (WNW) 1,844 5.3 -13.2°
Maximum altitude 02:06:10 41° 355° (N) 819 4.1 -12.9°
Drops below altitude 10° 02:10:10 10° 67° (ENE) 1,851 6.4 -12.5°
Sets 02:12:31 0° 74° (ENE) 2,749 7.2 -12.3°
